| time (UTC) | temp F | wind direction | speed MPH | gust MPH | rain 1hr in | rain 24hr in | rain mn in | humidity % | barometer mb |
| 20260510043020 | 64 | 257 | 0.0 | 0.0 | 0.00 | 0.00 | 0.00 | 79 | 1014.7 |
| 20260510041512 | 62 | 257 | 0.0 | 0.0 | 0.00 | 0.00 | 0.00 | 82 | 1014.5 |
| 20260510040008 | 61 | 257 | 0.0 | 0.0 | 0.00 | 0.00 | 0.00 | 82 | 1014.2 |
| 20260510034504 | 61 | 257 | 0.0 | 0.0 | 0.00 | 0.00 | 0.00 | 81 | 1014.0 |
| 20260510033002 | 61 | 257 | 0.0 | 0.0 | 0.00 | 0.00 | 0.00 | 81 | 1014.0 |
| 20260510031502 | 61 | 257 | 0.0 | 0.0 | 0.00 | 0.00 | 0.00 | 81 | 1013.9 |
| 20260510030100 | 61 | 257 | 0.0 | 0.0 | 0.00 | 0.00 | 0.00 | 80 | 1014.0 |
| 20260510024611 | 61 | 257 | 0.0 | 0.0 | 0.00 | 0.00 | 0.00 | 79 | 1013.8 |
| 20260510023101 | 62 | 257 | 0.0 | 0.0 | 0.00 | 0.00 | 0.00 | 80 | 1013.6 |
| 20260510021556 | 62 | 257 | 0.0 | 0.0 | 0.00 | 0.00 | 0.00 | 79 | 1013.7 |
| 20260510020056 | 62 | 257 | 0.0 | 0.0 | 0.00 | 0.00 | 0.00 | 79 | 1013.7 |
| 20260510014613 | 62 | 257 | 0.0 | 0.0 | 0.00 | 0.00 | 0.00 | 79 | 1013.7 |
| 20260510013103 | 62 | 257 | 0.0 | 0.0 | 0.00 | 0.00 | 0.00 | 79 | 1013.7 |
| 20260510011552 | 63 | 257 | 0.0 | 0.0 | 0.00 | 0.00 | 0.00 | 79 | 1013.7 |
| 20260510010052 | 63 | 257 | 0.0 | 0.0 | 0.00 | 0.00 | 0.00 | 78 | 1013.5 |
| 20260510004550 | 63 | 257 | 0.0 | 0.0 | 0.00 | 0.00 | 0.00 | 77 | 1013.5 |
| 20260510003048 | 63 | 257 | 0.0 | 0.0 | 0.00 | 0.00 | 0.00 | 77 | 1013.5 |
| 20260510001546 | 64 | 257 | 0.0 | 0.0 | 0.00 | 0.00 | 0.00 | 76 | 1013.5 |
| 20260510000044 | 64 | 257 | 0.0 | 0.0 | 0.00 | 0.00 | 0.00 | 75 | 1013.6 |
| 20260509234542 | 64 | 257 | 0.0 | 0.0 | 0.00 | 0.00 | 0.00 | 75 | 1013.7 |
| 20260509233043 | 64 | 257 | 0.0 | 0.0 | 0.00 | 0.00 | 0.00 | 75 | 1013.8 |
| 20260509231544 | 64 | 257 | 0.0 | 0.0 | 0.00 | 0.00 | 0.00 | 74 | 1013.9 |
| 20260509230038 | 65 | 257 | 0.0 | 0.0 | 0.00 | 0.00 | 0.00 | 74 | 1013.9 |
| 20260509224537 | 65 | 257 | 0.0 | 0.0 | 0.00 | 0.00 | 0.00 | 73 | 1014.0 |
| 20260509223043 | 65 | 257 | 0.0 | 0.0 | 0.00 | 0.00 | 0.00 | 72 | 1014.1 |
| 20260509221536 | 65 | 257 | 0.0 | 0.0 | 0.00 | 0.00 | 0.00 | 72 | 1014.1 |
| 20260509220032 | 65 | 257 | 0.0 | 0.0 | 0.00 | 0.00 | 0.00 | 71 | 1014.2 |
| 20260509214531 | 66 | 257 | 0.0 | 0.0 | 0.00 | 0.00 | 0.00 | 71 | 1014.2 |
| 20260509213030 | 66 | 257 | 0.0 | 0.0 | 0.00 | 0.00 | 0.00 | 71 | 1014.2 |
| 20260509211530 | 66 | 257 | 0.0 | 1.0 | 0.00 | 0.00 | 0.00 | 70 | 1014.1 |
| 20260509210031 | 66 | 257 | 0.0 | 1.0 | 0.00 | 0.00 | 0.00 | 70 | 1014.0 |
| 20260509204524 | 66 | 257 | 0.0 | 1.0 | 0.00 | 0.00 | 0.00 | 70 | 1013.9 |
| 20260509203026 | 66 | 257 | 0.0 | 1.0 | 0.00 | 0.00 | 0.00 | 69 | 1013.9 |
| 20260509201526 | 67 | 257 | 0.0 | 1.0 | 0.00 | 0.00 | 0.00 | 69 | 1013.9 |
| 20260509200023 | 67 | 257 | 0.0 | 0.0 | 0.00 | 0.00 | 0.00 | 68 | 1013.9 |
| 20260509194525 | 67 | 257 | 0.0 | 0.0 | 0.00 | 0.00 | 0.00 | 68 | 1013.7 |
| 20260509193022 | 67 | 257 | 0.0 | 1.0 | 0.00 | 0.00 | 0.00 | 67 | 1013.8 |
| 20260509191525 | 67 | 257 | 0.0 | 1.0 | 0.00 | 0.00 | 0.00 | 67 | 1013.7 |
| 20260509190023 | 68 | 257 | 0.0 | 1.0 | 0.00 | 0.00 | 0.00 | 66 | 1013.7 |
| 20260509184532 | 68 | 257 | 0.0 | 1.0 | 0.00 | 0.00 | 0.00 | 66 | 1013.7 |
| 20260509183020 | 68 | 257 | 0.0 | 2.0 | 0.00 | 0.00 | 0.00 | 65 | 1013.5 |
| 20260509181520 | 68 | 266 | 2.0 | 9.0 | 0.00 | 0.00 | 0.00 | 64 | 1013.4 |
| 20260509180023 | 69 | 265 | 1.0 | 6.0 | 0.00 | 0.00 | 0.00 | 62 | 1013.1 |
| 20260509174519 | 69 | 269 | 0.0 | 6.0 | 0.00 | 0.00 | 0.00 | 60 | 1012.9 |
| 20260509173049 | 70 | 263 | 1.0 | 6.0 | 0.00 | 0.00 | 0.00 | 58 | 1012.8 |
| 20260509171526 | 71 | 240 | 0.0 | 7.0 | 0.00 | 0.00 | 0.00 | 56 | 1012.7 |
| 20260509170018 | 71 | 234 | 1.0 | 9.0 | 0.00 | 0.00 | 0.00 | 54 | 1012.7 |
| 20260509164518 | 72 | 272 | 2.0 | 9.0 | 0.00 | 0.00 | 0.00 | 52 | 1012.6 |
| 20260509163022 | 74 | 276 | 4.0 | 10.0 | 0.00 | 0.00 | 0.00 | 48 | 1012.6 |
| 20260509161515 | 76 | 235 | 3.0 | 8.0 | 0.00 | 0.00 | 0.00 | 44 | 1012.4 |
| 20260509160020 | 77 | 246 | 3.0 | 8.0 | 0.00 | 0.00 | 0.00 | 40 | 1012.4 |
| 20260509154514 | 77 | 256 | 2.0 | 9.0 | 0.00 | 0.00 | 0.00 | 39 | 1012.4 |
| 20260509153022 | 78 | 248 | 2.0 | 9.0 | 0.00 | 0.00 | 0.00 | 37 | 1012.3 |
| 20260509151514 | 79 | 245 | 3.0 | 9.0 | 0.00 | 0.00 | 0.00 | 35 | 1012.2 |
| 20260509150012 | 80 | 246 | 3.0 | 7.0 | 0.00 | 0.00 | 0.00 | 33 | 1012.4 |
| 20260509144511 | 81 | 274 | 1.0 | 9.0 | 0.00 | 0.00 | 0.00 | 33 | 1012.3 |
| 20260509143114 | 81 | 253 | 3.0 | 10.0 | 0.00 | 0.00 | 0.00 | 30 | 1012.3 |
| 20260509141510 | 81 | 262 | 3.0 | 7.0 | 0.00 | 0.00 | 0.00 | 29 | 1012.4 |
| 20260509140009 | 82 | 169 | 3.0 | 8.0 | 0.00 | 0.00 | 0.00 | 28 | 1012.4 |
| 20260509134507 | 82 | 252 | 2.0 | 8.0 | 0.00 | 0.00 | 0.00 | 28 | 1012.5 |
| 20260509133006 | 82 | 166 | 2.0 | 9.0 | 0.00 | 0.00 | 0.00 | 29 | 1012.6 |
| 20260509131504 | 81 | 221 | 1.0 | 7.0 | 0.00 | 0.00 | 0.00 | 31 | 1012.6 |
| 20260509130008 | 81 | 233 | 1.0 | 9.0 | 0.00 | 0.00 | 0.00 | 31 | 1012.8 |
| 20260509124603 | 81 | 137 | 2.0 | 8.0 | 0.00 | 0.00 | 0.00 | 33 | 1013.0 |
| 20260509123121 | 81 | 243 | 3.0 | 12.0 | 0.00 | 0.00 | 0.00 | 32 | 1013.2 |
| 20260509121557 | 80 | 116 | 3.0 | 10.0 | 0.00 | 0.00 | 0.00 | 34 | 1013.3 |
| 20260509120058 | 80 | 167 | 2.0 | 16.0 | 0.00 | 0.00 | 0.00 | 34 | 1013.2 |
| 20260509114626 | 80 | 249 | 2.0 | 12.0 | 0.00 | 0.00 | 0.00 | 35 | 1013.2 |
| 20260509113122 | 79 | 142 | 3.0 | 10.0 | 0.00 | 0.00 | 0.00 | 35 | 1013.4 |
| 20260509111554 | 80 | 113 | 2.0 | 15.0 | 0.00 | 0.00 | 0.00 | 36 | 1013.5 |
| 20260509110059 | 80 | 215 | 2.0 | 8.0 | 0.00 | 0.00 | 0.00 | 36 | 1013.5 |
| 20260509104552 | 79 | 125 | 2.0 | 11.0 | 0.00 | 0.00 | 0.00 | 37 | 1013.6 |
| 20260509103057 | 79 | 123 | 2.0 | 16.0 | 0.00 | 0.00 | 0.00 | 38 | 1013.6 |
| 20260509101559 | 80 | 140 | 1.0 | 9.0 | 0.00 | 0.00 | 0.00 | 37 | 1013.7 |
| 20260509100048 | 80 | 220 | 2.0 | 8.0 | 0.00 | 0.00 | 0.00 | 32 | 1013.9 |
| 20260509094544 | 81 | 108 | 1.0 | 12.0 | 0.00 | 0.00 | 0.00 | 32 | 1014.2 |
| 20260509093120 | 81 | 236 | 1.0 | 9.0 | 0.00 | 0.00 | 0.00 | 32 | 1014.3 |
| 20260509091544 | 80 | 180 | 1.0 | 10.0 | 0.00 | 0.00 | 0.00 | 34 | 1014.3 |
| 20260509090134 | 80 | 83 | 2.0 | 6.0 | 0.00 | 0.00 | 0.00 | 32 | 1014.4 |
| 20260509084549 | 80 | 234 | 1.0 | 7.0 | 0.00 | 0.00 | 0.00 | 35 | 1014.4 |
| 20260509083008 | 79 | 146 | 1.0 | 6.0 | 0.00 | 0.00 | 0.00 | 35 | 1014.4 |
| 20260509081559 | 78 | 243 | 1.0 | 5.0 | 0.00 | 0.00 | 0.00 | 37 | 1014.5 |
| 20260509080022 | 78 | 264 | 0.0 | 7.0 | 0.00 | 0.00 | 0.00 | 39 | 1014.3 |
| 20260509074616 | 77 | 220 | 0.0 | 4.0 | 0.00 | 0.00 | 0.00 | 44 | 1014.4 |
| 20260509073047 | 75 | 249 | 0.0 | 4.0 | 0.00 | 0.00 | 0.00 | 47 | 1014.5 |
| 20260509071543 | 73 | 252 | 0.0 | 6.0 | 0.00 | 0.00 | 0.00 | 51 | 1014.6 |
| 20260509070037 | 72 | 303 | 0.0 | 5.0 | 0.00 | 0.00 | 0.00 | 57 | 1014.6 |
| 20260509064541 | 72 | 254 | 2.0 | 6.0 | 0.00 | 0.00 | 0.00 | 57 | 1014.6 |
| 20260509063035 | 70 | 283 | 0.0 | 1.0 | 0.00 | 0.00 | 0.00 | 59 | 1014.4 |
| 20260509061529 | 68 | 283 | 0.0 | 1.0 | 0.00 | 0.00 | 0.00 | 67 | 1014.6 |
| 20260509060024 | 66 | 283 | 0.0 | 2.0 | 0.00 | 0.00 | 0.00 | 70 | 1014.6 |
| 20260509054523 | 65 | 282 | 0.0 | 1.0 | 0.00 | 0.00 | 0.00 | 74 | 1014.5 |
| 20260509053020 | 64 | 282 | 0.0 | 1.0 | 0.00 | 0.00 | 0.00 | 75 | 1014.5 |
| 20260509051517 | 64 | 282 | 0.0 | 1.0 | 0.00 | 0.00 | 0.00 | 76 | 1014.7 |
| 20260509050023 | 63 | 282 | 0.0 | 1.0 | 0.00 | 0.00 | 0.00 | 76 | 1014.7 |
| 20260509044513 | 63 | 282 | 0.0 | 0.0 | 0.00 | 0.00 | 0.00 | 75 | 1014.8 |